Tracking 26253 objects as of 2-Oct-2022
HD Live streaming from Space Station
objects crossing your sky now

OBJECT A

Track OBJECT A now!
10-day predictions


NORAD ID: 45939
Int'l Code: 2020-051A
Perigee: 501.7 km
Apogee: 517.1 km
Inclination: 97.4 °
Period: 94.7 minutes
Semi major axis: 6880 km
RCS: Unknown
Launch date: July 25, 2020
Source: People's Republic of China (PRC)
Launch site: Taiyaun Space Center, China (TSC)
aabbcc
Your satellite tracking list
Your tracking list is empty




NASA's NSSDC Master Catalog

Two Line Element Set (TLE):
1 45939U 20051A   22275.38518844  .00005291  00000-0  24013-3 0  9997
2 45939  97.4237 352.7664 0011184  52.4539  16.1940 15.21176420121521
Source of the keplerian elements: AFSPC